DELTA 1 DEB, 2118

Orbit data source: Space-Track

DELTA 1 DEB, 2118 is space debris in SSO originally from a launch on Thu, 03 Feb 1966 UTC launched from the Air Force Eastern Test Range (AFETR). Debris objects in space refer to the collection of defunct objects orbiting the Earth. Examples of debris include non-operational satellites, rocket bodies, and fragments generated from explosions, collisions, or faulty payload assembly.

Loading next visibility...
Identifier
2118, 1966-008D
Orbit
SSO
Country
Flag of USUS
Related business
Manufacturer
Unknown
Mission
Spacecraft
Bus & Motor
Unknown
Mass
~1 kg wet, ~1 kg dry
Launch date (UTC)
1966-02-03 (60 years ago)
Launch vehicle
Unknown
Launch site
Air Force Eastern Test Range (AFETR)
Object type
Payload
Rocket body
Debris
Shape & HBR
Unknown
Radar Cross Section
Small (<0.1 m²)

Expand to show TLE details & history
Last TLE update: 5 hours ago

TLE from 5 hours ago
0 DELTA 1 DEB
1 02118U 66008D   25288.60982974  .00001322  00000-0  34545-3 0  9994
2 02118  98.0269  67.9827 0125589 252.7758 105.9658 14.46424644100467
Epoch: 2025-10-15T14:38Z
TLE epoch observation values (Epoch: 2025-10-15T14:38:09.289Z)
Latitude
0.00003°
Longitude
-175.93745°
Altitude
765.94 km
Speed
7.458 km/s
True Right ascension
04h 31m 55s
True Declination
0° 00' 00"
Sunlit
Object was in full shadow at epoch
Visualization orbit readout
Latitude
Unknown
Longitude
Unknown
Altitude
Unknown
Speed
Unknown
Apparent Right ascension
Unknown
Apparent Declination
Unknown
Sunlit
N/A
Visualization observer readout
Local Sidereal Time
14:36:32
Azimuth
Unknown
Elevation
Unknown
Doppler factor
Unknown
Orbital elements
Apogee altitude
823.767 km
Perigee altitude
645.115 km
Semi-major axis
7,112.578 km
Eccentricity
0.01256
Inclination
98.0269°
RAAN
67.9827°
Arg. of periapsis
252.7758°
True anomaly
107.34335°
Mean anomaly
105.9658°
Eccentric anomaly
106.65518°
Mean motion
3.61828 °/min
Orbital period
99.49 mins
BSTAR
0.00034545
Loading maneuver chart data...
Computing Atmospheric mass density...
Loading historical data...
Loading historical data...
Loading historical data...
Loading historical data...
Loading historical data...
Loading historical data...
Loading historical data...
Other satellites on launch #8 in the year 1966 (1966-02-03 UTC)

Documentation

Showing up to 5 results
|